Location: Biltmore Gardens
(41.6070°N, 83.4666°W)
Time: 20:33:22
(UTC+00:00)

Vanguard 3 - All Passes

Search period start: 17 April 2021 00:00
Search period end: 27 April 2021 00:00
Orbit: 508 x 3262 km, 33.3° (Epoch: 17 April)

Date Brightness Start Highest point End Pass type
(mag) Time Alt. Az. Time Alt. Az. Time Alt. Az.
17 Apr - 07:18:18 10° SSW 07:20:26 13° SSE 07:22:22 10° SE night (unlit)
17 Apr - 09:28:09 10° SW 09:31:13 25° S 09:34:33 10° ESE visible
17 Apr - 11:38:55 10° WSW 11:42:08 22° S 11:46:17 10° SE daylight
17 Apr - 13:52:32 10° SSW 13:53:42 10° SSW 13:54:58 10° S daylight
18 Apr - 08:14:41 10° SW 08:17:45 21° S 08:20:36 10° ESE visible
18 Apr - 10:25:29 10° WSW 10:28:31 23° S 10:32:05 10° SE daylight
18 Apr - 12:37:16 10° SW 12:39:41 14° SSW 12:42:34 10° SSE daylight
19 Apr - 07:01:03 10° SSW 07:04:11 17° SSE 07:06:50 10° SE night (unlit)
19 Apr - 09:11:55 10° WSW 09:15:02 24° S 09:18:11 10° SE visible
19 Apr - 11:23:17 10° SW 11:25:55 17° SSW 11:29:02 10° SSE daylight
20 Apr - 05:47:28 10° SSW 05:50:26 14° SSE 05:52:55 10° SE night (unlit)
20 Apr - 07:58:03 10° SW 08:01:34 24° S 08:04:35 10° ESE visible
20 Apr - 10:09:31 10° WSW 10:12:20 20° S 10:15:24 10° SE visible
21 Apr - 04:34:42 10° S 04:36:27 11° SSE 04:38:01 10° SE night (unlit)
21 Apr - 06:43:52 10° SW 06:47:58 22° S 06:51:09 10° ESE night (unlit)
21 Apr - 08:55:37 10° WSW 08:58:52 24° S 09:01:55 10° SE visible
21 Apr - 11:07:51 10° SW 11:09:39 13° SSW 11:11:39 10° SSE daylight
22 Apr - 05:29:33 10° SSW 05:34:11 19° SSE 05:37:39 10° ESE night (unlit)
22 Apr - 07:41:22 10° WSW 07:45:23 27° S 07:48:36 10° ESE visible
22 Apr - 09:53:31 10° WSW 09:56:07 18° SSW 09:58:46 10° SSE visible
23 Apr - 04:15:23 10° SSW 04:20:07 16° SSE 04:23:45 10° SE night (unlit)
23 Apr - 06:26:43 10° SW 06:31:45 27° S 06:35:23 10° ESE night (unlit)
23 Apr - 08:39:13 10° WSW 08:42:40 24° S 08:45:42 10° SE visible
24 Apr - 03:02:09 10° S 03:05:45 12° SSE 03:08:45 10° SE visible
24 Apr - 05:11:48 10° SW 05:17:54 25° S 05:22:06 10° ESE night (unlit)
24 Apr - 07:24:34 10° WSW 07:29:11 29° S 07:32:38 10° ESE visible
24 Apr - 09:37:30 10° WSW 09:39:52 16° SSW 09:42:09 10° SSE visible
25 Apr - 03:56:53 10° SSW 04:03:45 22° SSE 04:08:31 10° ESE visible
25 Apr - 06:09:29 10° WSW 06:15:31 32° S 06:19:34 10° ESE night (unlit)
25 Apr - 08:22:43 10° WSW 08:26:27 24° SSW 08:29:32 10° SE visible
26 Apr - 02:42:27 10° SSW 02:49:14 18° SSE 02:54:17 10° ESE visible
26 Apr - 04:54:05 10° SW 05:01:35 31° S 05:06:24 10° ESE visible
26 Apr - 07:07:41 10° WSW 07:12:58 32° S 07:16:40 10° ESE night (unlit)
26 Apr - 09:21:27 10° SW 09:23:33 14° SSW 09:25:32 10° S visible
